Regional Weather Roundup
Issued by NWS Sterling, VA

Home | Current Version | Previous Version | Text Only | Print | Product List | Glossary Off
Versions: 1 2 3 4 5 6 7 8 9 10 11 12 13 14 15 16 17 18 19 20 21 22 23 24 25 26 27 28 29 30 31 32 33 34 35 36 37 38 39 40 41 42 43 44 45 46 47 48 49 50

000
ASUS41 KLWX 280310
RWRLWX

REGIONAL WEATHER ROUNDUP
NATIONAL WEATHER SERVICE BALTIMORE MD/WASHINGTON DC
1100 PM EDT WED JUL 27 2016

Note: "FAIR" indicates few or no clouds below 12,000 feet
with no significant weather and/or obstructions to visibility.
 TC=TEMPERATURE CELSIUS

 * =Non NWS site. Station does not report precipitation (e.g. rain,
    snow, etc.), thunder, or fog.

DCZ001-MDZ009-015-VAZ040>042-051-053>054-280400-
WASHINGTON METRO

CITY           SKY/WX    TMP DP  RH WIND       PRES   REMARKS
WASHINGTON NAT MOCLDY    85  73  67 S9        29.91S HX  91
DULLES         MOCLDY    80  71  74 CALM      29.92S
ANDREWS AFB    CLEAR     80  72  78 S5        29.91S
FT BELVOIR     FAIR      77  72  85 CALM      29.91S
QUANTICO       FAIR      82  74  76 NW6       29.92R
LEESBURG*      FAIR      81  73  78 W5        29.93S
MANASSAS*      FAIR      77  75  94 CALM      29.92
GAITHERSBURG*  PTCLDY    77  70  78 CALM      29.96F

$$

MDZ006>007-011-014-280400-
BALTIMORE METRO

CITY           SKY/WX    TMP DP  RH WIND       PRES   REMARKS
BWI AIRPORT    PTCLDY    82  71  69 CALM      29.91S
MD SCIENCE CTR   N/A     87  69  54 MISG      29.91S HX  91
MARTIN STATE   PTCLDY    79  77  94 CALM      29.92S
ANNAPOLIS      PTCLDY    84  77  79 CALM      29.90S HX  94
FORT MEADE*    CLEAR     73  72  94 CALM      29.94R

$$

MDZ012-015-019>023-280400-
MARYLAND EASTERN SHORE

CITY           SKY/WX    TMP DP  RH WIND       PRES   REMARKS
OCEAN CITY     PTCLDY    79  76  90 SW5       29.91F
SALISBURY      PTCLDY    80  78  94 CALM      29.91S
EASTON*        CLOUDY    82  76  81 CALM      29.95R HX  90

$$

MDZ017>025-280400-
SOUTHERN MARYLAND

CITY           SKY/WX    TMP DP  RH WIND       PRES   REMARKS
PATUXENT RIVER CLOUDY    81  74  79 SW7       29.91R
ST INIGOES     PTCLDY    80  76  87 CALM      29.90F
LEONARDTOWN*     N/A    N/A N/A N/A MISG        N/A

$$

MDZ003>005-280400-
NORTH CENTRAL MARYLAND

CITY           SKY/WX    TMP DP  RH WIND       PRES   REMARKS
FREDERICK*     PTCLDY    79  72  78 S3        29.94F
HAGERSTOWN APT CLEAR     82  69  64 S7        29.94S

$$

MDZ501>502-280400-
WESTERN MARYLAND

CITY           SKY/WX    TMP DP  RH WIND       PRES   REMARKS
OAKLAND*       CLEAR     70  64  83 CALM      30.08S
CUMBERLAND*    CLEAR     81  70  69 CALM      29.99R

$$

VAZ025>031-280400-
SHENANDOAH VALLEY

CITY           SKY/WX    TMP DP  RH WIND       PRES   REMARKS
WINCHESTER*    FAIR      72  70  94 CALM      29.95S
FRONT ROYAL*   FAIR      72  72 100 S5        29.94F
LURAY*         NOT AVBL
NEW MARKET*    FAIR     N/A N/A N/A CALM      29.95F
STAUNTON*      FOG       70  70 100 CALM      30.00F VSB 1
WAYNESBORO*    FAIR      70  69  96 CALM      30.00F

$$

WVZ021-048>050-054>055-280400-
EASTERN WEST VIRGINIA PANHANDLE

CITY           SKY/WX    TMP DP  RH WIND       PRES   REMARKS
MARTINSBURG    FAIR      75  69  81 S6        29.93S
PETERSBURG*    MOCLDY    77  72  83 CALM      29.96S

$$

VAZ036>039-050-280400-
CENTRAL FOOTHILLS

CITY           SKY/WX    TMP DP  RH WIND       PRES   REMARKS
CHARLOTTESVILL FAIR      76  73  91 CALM      29.94S
CULPEPER*      FAIR      76  75  95 CALM      29.93F
ORANGE*          N/A     75  75 100 CALM      29.96S
GORDONSVILLE*  FAIR      74  74  98 CALM      29.94R
WARRENTON*     FAIR      76  69  79 CALM      29.92S

$$

VAZ055>057-280400-
NORTH AND CENTRAL PIEDMONT

CITY           SKY/WX    TMP DP  RH WIND       PRES   REMARKS
FREDERICKSBRG* FAIR      80  76  87 SW5       29.92R
STAFFORD*      FAIR      76  74  93 CALM      29.96S

$$

NCZ024-NYZ072-PAZ021-071-VAZ022-071-280400-
OTHER REGIONAL OBSERVATIONS

CITY           SKY/WX    TMP DP  RH WIND       PRES   REMARKS
NEW YORK CITY  CLEAR     81  66  60 CALM      29.93F
PHILADELPHIA   PTCLDY    85  63  47 NW5       29.91S
PITTSBURGH     PTCLDY    78  58  49 E5        29.96S
ROANOKE        FAIR      76  74  93 CALM      30.01F
RICHMOND       MOCLDY    79  74  84 N3        29.92F
RALEIGH        MOCLDY    77  70  79 NE5       29.97R

$$

ANZ530>537-280400-
MARINE OBSERVATIONS

STATION/POSITION TIME  TEMP    WIND        PRES
                       AIR SEA DIR/SP/G
                 (UTC) (F)     (DEG/KT/KT) (MB)
THOMAS PT LIGHT  0300   85 85  240/  5/  6 1014.1S
BALT KEY BRIDGE  0248          170/  4/  4   N/A
COVE POINT       0248          240/  5/  6   N/A
LEWISETTA        0248          220/  7/  9   N/A
SOLOMONS ISLAND  0248          210/  8/  9   N/A
PINEY POINT      0248          250/  2/  4   N/A

$$




USA.gov is the U.S. government's official web portal to all federal, state and local government web resources and services.